Time,TemperatureF,DewpointF,PressureIn,WindDirection,WindDirectionDegrees,WindSpeedMPH,WindSpeedGustMPH,Humidity,HourlyPrecipIn,Conditions,Clouds,dailyrainin,SoftwareType,DateUTC
2013-11-20 00:01:00,44.0,25.6,30.15,SE,140,7.0,10.0,48,0.00,,,0.00,WeatherCatV1.22B15,2013-11-20 06:01:00,
2013-11-20 00:06:00,43.9,26.0,30.16,SSE,167,5.0,6.0,49,0.00,,,0.00,WeatherCatV1.22B15,2013-11-20 06:06:00,
2013-11-20 00:11:00,43.7,25.8,30.15,SSW,206,5.0,9.0,49,0.00,,,0.00,WeatherCatV1.22B15,2013-11-20 06:11:00,
2013-11-20 00:16:00,43.6,26.2,30.15,SSE,165,5.0,7.0,50,0.00,,,0.00,WeatherCatV1.22B15,2013-11-20 06:16:00,
2013-11-20 00:21:00,43.4,26.5,30.15,SE,138,6.0,10.0,51,0.00,,,0.00,WeatherCatV1.22B15,2013-11-20 06:21:00,
2013-11-20 00:26:00,43.3,26.4,30.15,SSE,155,7.0,9.0,51,0.00,,,0.00,WeatherCatV1.22B15,2013-11-20 06:26:00,
2013-11-20 00:31:00,43.3,26.9,30.15,SSE,161,4.0,9.0,52,0.00,,,0.00,WeatherCatV1.22B15,2013-11-20 06:31:00,
2013-11-20 00:36:00,43.2,26.8,30.15,SE,137,7.0,7.0,52,0.00,,,0.00,WeatherCatV1.22B15,2013-11-20 06:36:00,
2013-11-20 00:41:00,43.1,26.7,30.15,SSE,153,8.0,11.0,52,0.00,,,0.00,WeatherCatV1.22B15,2013-11-20 06:41:00,
2013-11-20 00:46:00,43.0,27.0,30.14,South,175,2.0,8.0,53,0.00,,,0.00,WeatherCatV1.22B15,2013-11-20 06:46:00,
2013-11-20 00:51:00,42.8,27.3,30.14,SSE,149,4.0,12.0,54,0.00,,,0.00,WeatherCatV1.22B15,2013-11-20 06:51:00,
2013-11-20 00:56:00,42.6,27.1,30.14,SSE,160,6.0,12.0,54,0.00,,,0.00,WeatherCatV1.22B15,2013-11-20 06:56:00,
2013-11-20 01:01:00,42.5,27.5,30.14,South,177,6.0,8.0,55,0.00,,,0.00,WeatherCatV1.22B15,2013-11-20 07:01:00,
2013-11-20 01:06:00,42.2,27.6,30.14,SSE,153,4.0,8.0,56,0.00,,,0.00,WeatherCatV1.22B15,2013-11-20 07:06:00,
2013-11-20 01:11:00,42.0,27.9,30.14,South,186,7.0,11.0,57,0.00,,,0.00,WeatherCatV1.22B15,2013-11-20 07:11:00,
2013-11-20 01:16:00,41.8,27.7,30.14,SSE,165,8.0,10.0,57,0.00,,,0.00,WeatherCatV1.22B15,2013-11-20 07:16:00,
2013-11-20 01:21:00,41.6,27.9,30.14,SSE,164,3.0,11.0,58,0.00,,,0.00,WeatherCatV1.22B15,2013-11-20 07:21:00,
2013-11-20 01:26:00,41.4,27.7,30.14,South,188,3.0,7.0,58,0.00,,,0.00,WeatherCatV1.22B15,2013-11-20 07:26:00,
2013-11-20 01:31:00,41.3,28.1,30.14,SSE,167,1.0,7.0,59,0.00,,,0.00,WeatherCatV1.22B15,2013-11-20 07:31:00,
2013-11-20 01:36:00,41.3,28.5,30.14,SE,145,7.0,10.0,60,0.00,,,0.00,WeatherCatV1.22B15,2013-11-20 07:36:00,
2013-11-20 01:41:00,41.3,28.5,30.14,SSE,153,2.0,11.0,60,0.00,,,0.00,WeatherCatV1.22B15,2013-11-20 07:41:00,
2013-11-20 01:46:00,41.3,28.5,30.15,SSE,148,4.0,6.0,60,0.00,,,0.00,WeatherCatV1.22B15,2013-11-20 07:46:00,
2013-11-20 01:51:00,41.4,28.6,30.14,SSW,207,4.0,11.0,60,0.00,,,0.00,WeatherCatV1.22B15,2013-11-20 07:51:00,
2013-11-20 01:56:00,41.4,28.6,30.14,SSE,164,10.0,10.0,60,0.00,,,0.00,WeatherCatV1.22B15,2013-11-20 07:56:00,
2013-11-20 02:01:00,41.4,28.6,30.14,South,184,4.0,12.0,60,0.00,,,0.00,WeatherCatV1.22B15,2013-11-20 08:01:00,
2013-11-20 02:06:00,41.4,28.6,30.14,SSE,158,2.0,12.0,60,0.00,,,0.00,WeatherCatV1.22B15,2013-11-20 08:06:00,
2013-11-20 02:11:00,41.4,28.6,30.15,South,175,2.0,9.0,60,0.00,,,0.00,WeatherCatV1.22B15,2013-11-20 08:11:00,
2013-11-20 02:16:00,41.4,28.2,30.16,SSE,153,5.0,11.0,59,0.00,,,0.00,WeatherCatV1.22B15,2013-11-20 08:16:00,
2013-11-20 02:21:00,41.4,28.2,30.16,South,169,8.0,9.0,59,0.00,,,0.00,WeatherCatV1.22B15,2013-11-20 08:21:00,
2013-11-20 02:26:00,41.5,29.5,30.15,South,178,4.0,8.0,62,0.00,,,0.00,WeatherCatV1.22B15,2013-11-20 08:26:00,
2013-11-20 02:31:00,41.1,29.9,30.15,SSE,159,6.0,9.0,64,0.00,,,0.00,WeatherCatV1.22B15,2013-11-20 08:31:00,
2013-11-20 02:36:00,40.9,29.7,30.15,SSE,161,3.0,13.0,64,0.00,,,0.00,WeatherCatV1.22B15,2013-11-20 08:36:00,
2013-11-20 02:41:00,40.8,29.6,30.15,ESE,111,8.0,14.0,64,0.00,,,0.00,WeatherCatV1.22B15,2013-11-20 08:41:00,
2013-11-20 02:46:00,40.6,29.0,30.14,SSE,155,3.0,15.0,63,0.00,,,0.00,WeatherCatV1.22B15,2013-11-20 08:46:00,
2013-11-20 02:51:00,40.5,29.3,30.14,SSE,156,6.0,15.0,64,0.00,,,0.00,WeatherCatV1.22B15,2013-11-20 08:51:00,
2013-11-20 02:56:00,40.6,29.0,30.15,South,176,1.0,11.0,63,0.00,,,0.00,WeatherCatV1.22B15,2013-11-20 08:56:00,
2013-11-20 03:01:00,40.6,29.4,30.14,SSW,192,7.0,11.0,64,0.00,,,0.00,WeatherCatV1.22B15,2013-11-20 09:01:00,
2013-11-20 03:06:00,40.6,29.8,30.14,SSE,161,4.0,10.0,65,0.00,,,0.00,WeatherCatV1.22B15,2013-11-20 09:06:00,
2013-11-20 03:11:00,40.5,30.0,30.13,SE,135,4.0,8.0,66,0.00,,,0.00,WeatherCatV1.22B15,2013-11-20 09:11:00,
2013-11-20 03:16:00,40.3,29.9,30.12,South,178,10.0,14.0,66,0.00,,,0.00,WeatherCatV1.22B15,2013-11-20 09:16:00,
2013-11-20 03:21:00,40.2,29.8,30.12,SE,134,11.0,12.0,66,0.00,,,0.00,WeatherCatV1.22B15,2013-11-20 09:21:00,
2013-11-20 03:26:00,40.1,29.7,30.13,SSE,158,8.0,10.0,66,0.00,,,0.00,WeatherCatV1.22B15,2013-11-20 09:26:00,
2013-11-20 03:31:00,40.1,29.7,30.13,SSE,163,2.0,7.0,66,0.00,,,0.00,WeatherCatV1.22B15,2013-11-20 09:31:00,
2013-11-20 03:36:00,40.1,29.7,30.13,South,185,3.0,7.0,66,0.00,,,0.00,WeatherCatV1.22B15,2013-11-20 09:36:00,
2013-11-20 03:41:00,40.1,29.7,30.13,SE,143,5.0,9.0,66,0.00,,,0.00,WeatherCatV1.22B15,2013-11-20 09:41:00,
2013-11-20 03:46:00,40.1,29.7,30.13,SE,146,6.0,11.0,66,0.00,,,0.00,WeatherCatV1.22B15,2013-11-20 09:46:00,
2013-11-20 03:51:00,40.1,29.7,30.13,South,177,8.0,9.0,66,0.00,,,0.00,WeatherCatV1.22B15,2013-11-20 09:51:00,
2013-11-20 03:56:00,40.1,29.7,30.13,South,171,8.0,9.0,66,0.00,,,0.00,WeatherCatV1.22B15,2013-11-20 09:56:00,
2013-11-20 04:01:00,40.1,29.7,30.13,South,173,3.0,12.0,66,0.00,,,0.00,WeatherCatV1.22B15,2013-11-20 10:01:00,
2013-11-20 04:06:00,40.0,29.6,30.13,SE,146,11.0,11.0,66,0.00,,,0.00,WeatherCatV1.22B15,2013-11-20 10:06:00,
2013-11-20 04:11:00,40.0,29.6,30.12,SSE,163,5.0,12.0,66,0.00,,,0.00,WeatherCatV1.22B15,2013-11-20 10:11:00,
2013-11-20 04:16:00,40.1,30.0,30.12,SE,146,0.0,10.0,67,0.00,,,0.00,WeatherCatV1.22B15,2013-11-20 10:16:00,
2013-11-20 04:21:00,40.2,29.8,30.13,SSE,168,5.0,11.0,66,0.00,,,0.00,WeatherCatV1.22B15,2013-11-20 10:21:00,
2013-11-20 04:26:00,40.2,30.1,30.12,SSE,164,7.0,11.0,67,0.00,,,0.00,WeatherCatV1.22B15,2013-11-20 10:26:00,
2013-11-20 04:31:00,40.2,29.8,30.12,South,169,4.0,14.0,66,0.00,,,0.00,WeatherCatV1.22B15,2013-11-20 10:31:00,
2013-11-20 04:36:00,40.1,29.7,30.12,SE,128,8.0,14.0,66,0.00,,,0.00,WeatherCatV1.22B15,2013-11-20 10:36:00,
2013-11-20 04:41:00,40.1,30.0,30.13,SSW,200,8.0,10.0,67,0.00,,,0.00,WeatherCatV1.22B15,2013-11-20 10:41:00,
2013-11-20 04:46:00,40.0,29.9,30.12,SSE,165,11.0,12.0,67,0.00,,,0.00,WeatherCatV1.22B15,2013-11-20 10:46:00,
2013-11-20 04:51:00,40.0,29.9,30.13,SSE,161,3.0,8.0,67,0.00,,,0.00,WeatherCatV1.22B15,2013-11-20 10:51:00,
2013-11-20 04:56:00,39.9,29.9,30.12,SSE,150,7.0,14.0,67,0.00,,,0.00,WeatherCatV1.22B15,2013-11-20 10:56:00,
2013-11-20 05:01:00,39.9,29.9,30.12,SSE,158,10.0,14.0,67,0.00,,,0.00,WeatherCatV1.22B15,2013-11-20 11:01:00,
2013-11-20 05:06:00,39.9,29.9,30.11,South,171,9.0,11.0,67,0.00,,,0.00,WeatherCatV1.22B15,2013-11-20 11:06:00,
2013-11-20 05:11:00,39.9,29.9,30.11,SE,126,10.0,14.0,67,0.00,,,0.00,WeatherCatV1.22B15,2013-11-20 11:11:00,
2013-11-20 05:16:00,40.0,29.9,30.11,South,178,2.0,9.0,67,0.00,,,0.00,WeatherCatV1.22B15,2013-11-20 11:16:00,
2013-11-20 05:21:00,40.0,29.9,30.11,South,172,5.0,21.0,67,0.00,,,0.00,WeatherCatV1.22B15,2013-11-20 11:21:00,
2013-11-20 05:26:00,39.8,30.1,30.10,SSE,159,4.0,11.0,68,0.00,,,0.00,WeatherCatV1.22B15,2013-11-20 11:26:00,
2013-11-20 05:31:00,39.8,30.1,30.10,ESE,113,9.0,14.0,68,0.00,,,0.00,WeatherCatV1.22B15,2013-11-20 11:31:00,
2013-11-20 05:36:00,39.7,30.0,30.10,South,180,7.0,12.0,68,0.00,,,0.00,WeatherCatV1.22B15,2013-11-20 11:36:00,
2013-11-20 05:41:00,39.7,30.0,30.10,SE,142,5.0,15.0,68,0.00,,,0.00,WeatherCatV1.22B15,2013-11-20 11:41:00,
2013-11-20 05:46:00,39.8,29.8,30.10,SSE,163,4.0,13.0,67,0.00,,,0.00,WeatherCatV1.22B15,2013-11-20 11:46:00,
2013-11-20 05:51:00,39.8,29.8,30.10,SSE,165,6.0,12.0,67,0.00,,,0.00,WeatherCatV1.22B15,2013-11-20 11:51:00,
2013-11-20 05:56:00,39.8,29.8,30.10,South,179,4.0,14.0,67,0.00,,,0.00,WeatherCatV1.22B15,2013-11-20 11:56:00,
2013-11-20 06:01:00,39.8,29.8,30.10,SSE,163,2.0,10.0,67,0.00,,,0.00,WeatherCatV1.22B15,2013-11-20 12:01:00,
2013-11-20 06:06:00,39.8,29.8,30.11,SE,136,5.0,9.0,67,0.00,,,0.00,WeatherCatV1.22B15,2013-11-20 12:06:00,
2013-11-20 06:11:00,39.9,29.9,30.11,SSE,167,8.0,11.0,67,0.00,,,0.00,WeatherCatV1.22B15,2013-11-20 12:11:00,
2013-11-20 06:16:00,39.9,29.9,30.11,ESE,121,5.0,15.0,67,0.00,,,0.00,WeatherCatV1.22B15,2013-11-20 12:16:00,
2013-11-20 06:21:00,40.0,29.6,30.11,SSE,157,10.0,10.0,66,0.00,,,0.00,WeatherCatV1.22B15,2013-11-20 12:21:00,
2013-11-20 06:26:00,40.0,29.6,30.11,South,169,3.0,8.0,66,0.00,,,0.00,WeatherCatV1.22B15,2013-11-20 12:26:00,
2013-11-20 06:31:00,40.0,29.9,30.11,South,177,10.0,10.0,67,0.00,,,0.00,WeatherCatV1.22B15,2013-11-20 12:31:00,
2013-11-20 06:36:00,39.9,30.2,30.10,SE,126,10.0,10.0,68,0.00,,,0.00,WeatherCatV1.22B15,2013-11-20 12:36:00,
2013-11-20 06:41:00,39.7,30.4,30.10,ESE,122,3.0,13.0,69,0.00,,,0.00,WeatherCatV1.22B15,2013-11-20 12:41:00,
2013-11-20 06:46:00,39.7,30.4,30.10,SSE,159,3.0,10.0,69,0.00,,,0.00,WeatherCatV1.22B15,2013-11-20 12:46:00,
2013-11-20 06:51:00,39.7,30.4,30.11,SSE,147,8.0,10.0,69,0.00,,,0.00,WeatherCatV1.22B15,2013-11-20 12:51:00,
2013-11-20 06:56:00,39.7,30.4,30.11,SSW,201,5.0,12.0,69,0.00,,,0.00,WeatherCatV1.22B15,2013-11-20 12:56:00,
2013-11-20 07:01:00,39.7,30.7,30.11,SE,142,8.0,11.0,70,0.00,,,0.00,WeatherCatV1.22B15,2013-11-20 13:01:00,
2013-11-20 07:06:00,39.5,31.2,30.11,ESE,119,4.0,11.0,72,0.00,,,0.00,WeatherCatV1.22B15,2013-11-20 13:06:00,
2013-11-20 07:11:00,39.2,30.9,30.11,SE,131,6.0,12.0,72,0.00,,,0.00,WeatherCatV1.22B15,2013-11-20 13:11:00,
2013-11-20 07:16:00,39.2,30.9,30.11,South,169,7.0,13.0,72,0.00,,,0.00,WeatherCatV1.22B15,2013-11-20 13:16:00,
2013-11-20 07:21:00,39.2,30.9,30.11,SSW,192,3.0,10.0,72,0.00,,,0.00,WeatherCatV1.22B15,2013-11-20 13:21:00,
2013-11-20 07:26:00,39.1,31.5,30.11,SSE,155,3.0,13.0,74,0.00,,,0.01,WeatherCatV1.22B15,2013-11-20 13:26:00,
2013-11-20 07:31:00,38.9,31.7,30.11,SSE,168,3.0,8.0,75,0.00,,,0.01,WeatherCatV1.22B15,2013-11-20 13:31:00,
2013-11-20 07:36:00,38.7,31.8,30.10,SSE,150,5.0,7.0,76,0.00,,,0.01,WeatherCatV1.22B15,2013-11-20 13:36:00,
2013-11-20 07:41:00,38.6,31.4,30.11,South,188,5.0,14.0,75,0.00,,,0.01,WeatherCatV1.22B15,2013-11-20 13:41:00,
2013-11-20 07:46:00,38.7,31.5,30.11,SE,144,7.0,12.0,75,0.00,,,0.01,WeatherCatV1.22B15,2013-11-20 13:46:00,
2013-11-20 07:51:00,38.7,31.5,30.11,South,188,5.0,13.0,75,0.00,,,0.01,WeatherCatV1.22B15,2013-11-20 13:51:00,
2013-11-20 07:56:00,38.8,31.6,30.11,SSE,165,7.0,10.0,75,0.00,,,0.01,WeatherCatV1.22B15,2013-11-20 13:56:00,
2013-11-20 08:01:00,38.8,31.6,30.11,SE,142,7.0,11.0,75,0.00,,,0.01,WeatherCatV1.22B15,2013-11-20 14:01:00,
2013-11-20 08:06:00,38.9,32.0,30.11,SE,140,3.0,5.0,76,0.00,,,0.01,WeatherCatV1.22B15,2013-11-20 14:06:00,
2013-11-20 08:11:00,38.9,31.7,30.12,SSE,150,6.0,9.0,75,0.00,,,0.01,WeatherCatV1.22B15,2013-11-20 14:11:00,
2013-11-20 08:16:00,39.0,31.8,30.13,SSW,196,5.0,7.0,75,0.00,,,0.01,WeatherCatV1.22B15,2013-11-20 14:16:00,
2013-11-20 08:21:00,39.1,31.9,30.12,SSE,159,4.0,7.0,75,0.00,,,0.01,WeatherCatV1.22B15,2013-11-20 14:21:00,
2013-11-20 08:26:00,39.1,31.9,30.12,SSE,151,7.0,10.0,75,0.00,,,0.01,WeatherCatV1.22B15,2013-11-20 14:26:00,
2013-11-20 08:31:00,39.2,32.0,30.12,SSW,195,3.0,11.0,75,0.00,,,0.01,WeatherCatV1.22B15,2013-11-20 14:31:00,
2013-11-20 08:36:00,39.2,32.0,30.12,SSE,161,4.0,9.0,75,0.00,,,0.01,WeatherCatV1.22B15,2013-11-20 14:36:00,
2013-11-20 08:41:00,39.2,32.0,30.11,SE,144,4.0,11.0,75,0.00,,,0.01,WeatherCatV1.22B15,2013-11-20 14:41:00,
2013-11-20 08:46:00,39.3,32.4,30.11,SE,139,3.0,10.0,76,0.00,,,0.01,WeatherCatV1.22B15,2013-11-20 14:46:00,
2013-11-20 08:51:00,39.3,32.4,30.11,SE,129,6.0,11.0,76,0.00,,,0.01,WeatherCatV1.22B15,2013-11-20 14:51:00,
2013-11-20 08:56:00,39.3,32.4,30.11,SE,144,5.0,11.0,76,0.00,,,0.01,WeatherCatV1.22B15,2013-11-20 14:56:00,
2013-11-20 09:01:00,39.4,32.5,30.11,South,185,5.0,8.0,76,0.00,,,0.01,WeatherCatV1.22B15,2013-11-20 15:01:00,
2013-11-20 09:06:00,39.5,32.6,30.10,SE,146,7.0,11.0,76,0.00,,,0.01,WeatherCatV1.22B15,2013-11-20 15:06:00,
2013-11-20 09:11:00,39.7,32.8,30.10,South,182,5.0,15.0,76,0.00,,,0.01,WeatherCatV1.22B15,2013-11-20 15:11:00,
2013-11-20 09:16:00,39.9,33.0,30.10,South,174,7.0,12.0,76,0.00,,,0.01,WeatherCatV1.22B15,2013-11-20 15:16:00,
2013-11-20 09:21:00,40.2,33.2,30.10,South,185,4.0,8.0,76,0.00,,,0.01,WeatherCatV1.22B15,2013-11-20 15:21:00,
2013-11-20 09:26:00,40.5,33.2,30.10,South,179,5.0,15.0,75,0.00,,,0.01,WeatherCatV1.22B15,2013-11-20 15:26:00,
2013-11-20 09:31:00,40.8,33.2,30.10,SSE,151,2.0,13.0,74,0.00,,,0.01,WeatherCatV1.22B15,2013-11-20 15:31:00,
2013-11-20 09:36:00,41.0,33.0,30.10,South,177,8.0,15.0,73,0.00,,,0.01,WeatherCatV1.22B15,2013-11-20 15:36:00,
2013-11-20 09:41:00,41.0,33.0,30.10,South,179,11.0,11.0,73,0.00,,,0.01,WeatherCatV1.22B15,2013-11-20 15:41:00,
2013-11-20 09:46:00,41.1,33.1,30.10,South,170,9.0,11.0,73,0.00,,,0.01,WeatherCatV1.22B15,2013-11-20 15:46:00,
2013-11-20 09:51:00,41.1,33.1,30.09,SE,136,6.0,12.0,73,0.00,,,0.01,WeatherCatV1.22B15,2013-11-20 15:51:00,
2013-11-20 09:56:00,41.1,32.8,30.09,East,98,8.0,14.0,72,0.00,,,0.01,WeatherCatV1.22B15,2013-11-20 15:56:00,
2013-11-20 10:01:00,41.2,32.9,30.09,ESE,119,4.0,11.0,72,0.00,,,0.01,WeatherCatV1.22B15,2013-11-20 16:01:00,
2013-11-20 10:06:00,41.4,33.1,30.09,SE,138,4.0,12.0,72,0.00,,,0.01,WeatherCatV1.22B15,2013-11-20 16:06:00,
2013-11-20 10:11:00,41.5,32.8,30.09,SE,140,6.0,10.0,71,0.00,,,0.01,WeatherCatV1.22B15,2013-11-20 16:11:00,
2013-11-20 10:16:00,41.6,33.2,30.08,SE,141,8.0,15.0,72,0.00,,,0.01,WeatherCatV1.22B15,2013-11-20 16:16:00,
2013-11-20 10:21:00,41.4,33.1,30.09,SSW,197,5.0,11.0,72,0.00,,,0.01,WeatherCatV1.22B15,2013-11-20 16:21:00,
2013-11-20 10:26:00,41.6,33.6,30.08,SSE,156,6.0,13.0,73,0.00,,,0.01,WeatherCatV1.22B15,2013-11-20 16:26:00,
2013-11-20 10:31:00,42.0,33.3,30.08,SSE,161,3.0,15.0,71,0.00,,,0.01,WeatherCatV1.22B15,2013-11-20 16:31:00,
2013-11-20 10:36:00,42.4,33.3,30.08,SSE,161,5.0,13.0,70,0.00,,,0.01,WeatherCatV1.22B15,2013-11-20 16:36:00,
2013-11-20 10:41:00,42.9,33.8,30.08,South,177,8.0,17.0,70,0.00,,,0.01,WeatherCatV1.22B15,2013-11-20 16:41:00,
2013-11-20 10:46:00,43.2,33.4,30.08,SSE,165,8.0,15.0,68,0.00,,,0.01,WeatherCatV1.22B15,2013-11-20 16:46:00,
2013-11-20 10:51:00,43.4,33.9,30.08,SSE,167,4.0,9.0,69,0.00,,,0.01,WeatherCatV1.22B15,2013-11-20 16:51:00,
2013-11-20 10:56:00,43.9,33.7,30.07,South,180,5.0,12.0,67,0.00,,,0.01,WeatherCatV1.22B15,2013-11-20 16:56:00,
2013-11-20 11:01:00,44.3,33.3,30.07,SSW,209,7.0,15.0,65,0.00,,,0.01,WeatherCatV1.22B15,2013-11-20 17:01:00,
2013-11-20 11:06:00,44.9,33.5,30.07,South,173,9.0,14.0,64,0.00,,,0.01,WeatherCatV1.22B15,2013-11-20 17:06:00,
2013-11-20 11:11:00,45.2,33.0,30.07,SSE,153,3.0,6.0,62,0.00,,,0.01,WeatherCatV1.22B15,2013-11-20 17:11:00,
2013-11-20 11:16:00,45.3,32.2,30.07,SW,217,4.0,11.0,60,0.00,,,0.01,WeatherCatV1.22B15,2013-11-20 17:16:00,
2013-11-20 11:21:00,45.3,32.7,30.07,South,175,5.0,15.0,61,0.00,,,0.01,WeatherCatV1.22B15,2013-11-20 17:21:00,
2013-11-20 11:26:00,45.4,32.8,30.06,SSE,155,6.0,12.0,61,0.00,,,0.01,WeatherCatV1.22B15,2013-11-20 17:26:00,
2013-11-20 11:31:00,45.4,32.3,30.06,South,175,9.0,11.0,60,0.00,,,0.01,WeatherCatV1.22B15,2013-11-20 17:31:00,
2013-11-20 11:36:00,45.8,33.5,30.06,SE,138,8.0,10.0,62,0.00,,,0.01,WeatherCatV1.22B15,2013-11-20 17:36:00,
2013-11-20 11:41:00,46.7,33.6,30.05,South,172,7.0,9.0,60,0.00,,,0.01,WeatherCatV1.22B15,2013-11-20 17:41:00,
2013-11-20 11:46:00,46.9,33.3,30.04,South,178,8.0,12.0,59,0.00,,,0.01,WeatherCatV1.22B15,2013-11-20 17:46:00,
2013-11-20 11:51:00,46.8,32.8,30.04,South,184,6.0,19.0,58,0.00,,,0.01,WeatherCatV1.22B15,2013-11-20 17:51:00,
2013-11-20 11:56:00,46.9,33.3,30.04,WSW,239,5.0,13.0,59,0.00,,,0.01,WeatherCatV1.22B15,2013-11-20 17:56:00,
2013-11-20 12:01:00,47.4,33.4,30.04,SSE,153,4.0,18.0,58,0.00,,,0.01,WeatherCatV1.22B15,2013-11-20 18:01:00,
2013-11-20 12:06:00,47.9,34.3,30.03,South,188,3.0,11.0,59,0.00,,,0.01,WeatherCatV1.22B15,2013-11-20 18:06:00,
2013-11-20 12:11:00,48.1,33.2,30.03,SE,142,10.0,14.0,56,0.00,,,0.01,WeatherCatV1.22B15,2013-11-20 18:11:00,
2013-11-20 12:16:00,48.4,33.9,30.02,SSW,194,4.0,13.0,57,0.00,,,0.01,WeatherCatV1.22B15,2013-11-20 18:16:00,
2013-11-20 12:21:00,49.1,34.1,30.02,SW,226,7.0,11.0,56,0.00,,,0.01,WeatherCatV1.22B15,2013-11-20 18:21:00,
2013-11-20 12:26:00,49.5,33.5,30.02,South,189,8.0,14.0,54,0.00,,,0.01,WeatherCatV1.22B15,2013-11-20 18:26:00,
2013-11-20 12:31:00,49.5,32.6,30.01,SSE,157,8.0,16.0,52,0.00,,,0.01,WeatherCatV1.22B15,2013-11-20 18:31:00,
2013-11-20 12:36:00,49.7,33.3,30.01,South,188,9.0,16.0,53,0.00,,,0.01,WeatherCatV1.22B15,2013-11-20 18:36:00,
2013-11-20 12:41:00,50.1,33.2,30.01,South,174,6.0,15.0,52,0.00,,,0.01,WeatherCatV1.22B15,2013-11-20 18:41:00,
2013-11-20 12:46:00,50.4,33.0,30.01,SSW,197,4.0,8.0,51,0.00,,,0.01,WeatherCatV1.22B15,2013-11-20 18:46:00,
2013-11-20 12:51:00,50.5,33.0,30.02,SSE,165,11.0,13.0,51,0.00,,,0.01,WeatherCatV1.22B15,2013-11-20 18:51:00,
2013-11-20 12:56:00,50.6,33.2,30.01,South,176,3.0,9.0,51,0.00,,,0.01,WeatherCatV1.22B15,2013-11-20 18:56:00,
2013-11-20 13:01:00,50.8,33.8,30.01,South,169,4.0,7.0,52,0.00,,,0.01,WeatherCatV1.22B15,2013-11-20 19:01:00,
2013-11-20 13:06:00,51.3,33.8,30.01,South,169,9.0,12.0,51,0.00,,,0.01,WeatherCatV1.22B15,2013-11-20 19:06:00,
2013-11-20 13:11:00,51.6,33.6,30.00,SSE,155,12.0,12.0,50,0.00,,,0.01,WeatherCatV1.22B15,2013-11-20 19:11:00,
2013-11-20 13:16:00,51.9,33.3,30.00,SSE,167,9.0,11.0,49,0.00,,,0.01,WeatherCatV1.22B15,2013-11-20 19:16:00,
2013-11-20 13:21:00,51.9,31.8,30.00,South,189,5.0,12.0,46,0.00,,,0.01,WeatherCatV1.22B15,2013-11-20 19:21:00,
2013-11-20 13:26:00,52.0,33.9,30.00,South,186,4.0,7.0,50,0.00,,,0.01,WeatherCatV1.22B15,2013-11-20 19:26:00,
2013-11-20 13:31:00,52.1,33.5,30.00,SSE,148,5.0,9.0,49,0.00,,,0.01,WeatherCatV1.22B15,2013-11-20 19:31:00,
2013-11-20 13:36:00,52.2,33.6,30.00,South,190,9.0,12.0,49,0.00,,,0.01,WeatherCatV1.22B15,2013-11-20 19:36:00,
2013-11-20 13:41:00,52.0,32.9,29.99,SSE,148,9.0,13.0,48,0.00,,,0.01,WeatherCatV1.22B15,2013-11-20 19:41:00,
2013-11-20 13:46:00,51.8,32.7,29.99,SSE,167,6.0,14.0,48,0.00,,,0.01,WeatherCatV1.22B15,2013-11-20 19:46:00,
2013-11-20 13:51:00,51.8,33.2,29.99,South,182,7.0,10.0,49,0.00,,,0.01,WeatherCatV1.22B15,2013-11-20 19:51:00,
2013-11-20 13:56:00,52.3,34.2,29.98,SE,138,10.0,11.0,50,0.00,,,0.01,WeatherCatV1.22B15,2013-11-20 19:56:00,
2013-11-20 14:01:00,52.5,33.9,29.98,South,175,10.0,14.0,49,0.00,,,0.01,WeatherCatV1.22B15,2013-11-20 20:01:00,
2013-11-20 14:06:00,52.7,34.1,29.98,South,181,4.0,12.0,49,0.00,,,0.01,WeatherCatV1.22B15,2013-11-20 20:06:00,
2013-11-20 14:11:00,53.2,34.5,29.98,SSE,168,11.0,12.0,49,0.00,,,0.01,WeatherCatV1.22B15,2013-11-20 20:11:00,
2013-11-20 14:16:00,53.3,33.0,29.98,SSE,165,8.0,13.0,46,0.00,,,0.01,WeatherCatV1.22B15,2013-11-20 20:16:00,
2013-11-20 14:21:00,53.4,33.7,29.98,South,186,13.0,13.0,47,0.00,,,0.01,WeatherCatV1.22B15,2013-11-20 20:21:00,
2013-11-20 14:26:00,53.7,34.0,29.98,ESE,122,4.0,10.0,47,0.00,,,0.01,WeatherCatV1.22B15,2013-11-20 20:26:00,
2013-11-20 14:31:00,54.1,34.3,29.98,SSW,200,6.0,10.0,47,0.00,,,0.01,WeatherCatV1.22B15,2013-11-20 20:31:00,
2013-11-20 14:36:00,54.6,33.7,29.97,SSE,167,7.0,12.0,45,0.00,,,0.01,WeatherCatV1.22B15,2013-11-20 20:36:00,
2013-11-20 14:41:00,55.0,34.0,29.97,SSW,208,9.0,11.0,45,0.00,,,0.01,WeatherCatV1.22B15,2013-11-20 20:41:00,
2013-11-20 14:46:00,55.2,33.1,29.97,SSE,161,4.0,15.0,43,0.00,,,0.01,WeatherCatV1.22B15,2013-11-20 20:46:00,
2013-11-20 14:51:00,55.3,33.2,29.97,SSE,157,3.0,10.0,43,0.00,,,0.01,WeatherCatV1.22B15,2013-11-20 20:51:00,
2013-11-20 14:56:00,55.5,33.9,29.97,SSE,156,10.0,12.0,44,0.00,,,0.01,WeatherCatV1.22B15,2013-11-20 20:56:00,
2013-11-20 15:01:00,55.5,33.9,29.97,South,182,6.0,11.0,44,0.00,,,0.01,WeatherCatV1.22B15,2013-11-20 21:01:00,
2013-11-20 15:06:00,55.5,33.9,29.98,SSW,196,1.0,6.0,44,0.00,,,0.01,WeatherCatV1.22B15,2013-11-20 21:06:00,
2013-11-20 15:11:00,55.7,33.0,29.97,SSW,209,2.0,14.0,42,0.00,,,0.01,WeatherCatV1.22B15,2013-11-20 21:11:00,
2013-11-20 15:16:00,55.7,33.0,29.97,SE,142,3.0,8.0,42,0.00,,,0.01,WeatherCatV1.22B15,2013-11-20 21:16:00,
2013-11-20 15:21:00,55.9,33.2,29.97,SE,133,8.0,14.0,42,0.00,,,0.01,WeatherCatV1.22B15,2013-11-20 21:21:00,
2013-11-20 15:26:00,56.0,33.2,29.97,SSE,161,6.0,13.0,42,0.00,,,0.01,WeatherCatV1.22B15,2013-11-20 21:26:00,
2013-11-20 15:31:00,56.0,32.6,29.97,SSW,196,10.0,10.0,41,0.00,,,0.01,WeatherCatV1.22B15,2013-11-20 21:31:00,
2013-11-20 15:36:00,55.8,33.1,29.97,South,185,4.0,7.0,42,0.00,,,0.01,WeatherCatV1.22B15,2013-11-20 21:36:00,
2013-11-20 15:41:00,55.7,33.5,29.97,SE,145,3.0,5.0,43,0.00,,,0.01,WeatherCatV1.22B15,2013-11-20 21:41:00,
2013-11-20 15:46:00,55.6,33.5,29.98,SSE,149,3.0,4.0,43,0.00,,,0.01,WeatherCatV1.22B15,2013-11-20 21:46:00,
2013-11-20 15:51:00,55.6,32.9,29.98,SSE,150,4.0,8.0,42,0.00,,,0.01,WeatherCatV1.22B15,2013-11-20 21:51:00,
2013-11-20 15:56:00,55.7,33.5,29.98,SSE,155,7.0,9.0,43,0.00,,,0.01,WeatherCatV1.22B15,2013-11-20 21:56:00,
2013-11-20 16:01:00,55.7,33.5,29.98,SE,135,5.0,6.0,43,0.00,,,0.01,WeatherCatV1.22B15,2013-11-20 22:01:00,
2013-11-20 16:06:00,55.6,33.5,29.98,SE,146,7.0,8.0,43,0.00,,,0.01,WeatherCatV1.22B15,2013-11-20 22:06:00,
2013-11-20 16:11:00,55.5,33.9,29.98,SSE,157,4.0,10.0,44,0.00,,,0.01,WeatherCatV1.22B15,2013-11-20 22:11:00,
2013-11-20 16:16:00,55.5,33.4,29.98,SSE,165,2.0,9.0,43,0.00,,,0.01,WeatherCatV1.22B15,2013-11-20 22:16:00,
2013-11-20 16:21:00,55.5,33.4,29.98,SSE,161,4.0,4.0,43,0.00,,,0.01,WeatherCatV1.22B15,2013-11-20 22:21:00,
2013-11-20 16:26:00,55.4,33.8,29.98,SSE,160,4.0,5.0,44,0.00,,,0.01,WeatherCatV1.22B15,2013-11-20 22:26:00,
2013-11-20 16:31:00,55.1,33.6,29.98,SSE,157,2.0,6.0,44,0.00,,,0.01,WeatherCatV1.22B15,2013-11-20 22:31:00,
2013-11-20 16:36:00,54.9,34.0,29.98,South,169,2.0,6.0,45,0.00,,,0.01,WeatherCatV1.22B15,2013-11-20 22:36:00,
2013-11-20 16:41:00,54.7,33.8,29.98,SSE,161,7.0,7.0,45,0.00,,,0.01,WeatherCatV1.22B15,2013-11-20 22:41:00,
2013-11-20 16:46:00,54.5,33.6,29.99,SSE,148,9.0,9.0,45,0.00,,,0.01,WeatherCatV1.22B15,2013-11-20 22:46:00,
2013-11-20 16:51:00,54.3,33.4,29.99,South,174,2.0,6.0,45,0.00,,,0.01,WeatherCatV1.22B15,2013-11-20 22:51:00,
2013-11-20 16:56:00,54.2,33.3,30.00,SSE,161,1.0,5.0,45,0.00,,,0.01,WeatherCatV1.22B15,2013-11-20 22:56:00,
2013-11-20 17:01:00,54.0,33.7,30.00,SSE,165,3.0,6.0,46,0.00,,,0.01,WeatherCatV1.22B15,2013-11-20 23:01:00,
2013-11-20 17:06:00,53.7,33.4,30.00,SSE,156,4.0,5.0,46,0.00,,,0.01,WeatherCatV1.22B15,2013-11-20 23:06:00,
2013-11-20 17:11:00,53.3,33.6,30.00,SSE,157,2.0,7.0,47,0.00,,,0.01,WeatherCatV1.22B15,2013-11-20 23:11:00,
2013-11-20 17:16:00,53.1,33.9,30.00,SSE,155,3.0,3.0,48,0.00,,,0.01,WeatherCatV1.22B15,2013-11-20 23:16:00,
2013-11-20 17:21:00,52.9,33.8,30.00,SSW,202,5.0,5.0,48,0.00,,,0.01,WeatherCatV1.22B15,2013-11-20 23:21:00,
2013-11-20 17:26:00,52.7,33.6,30.00,SSE,161,3.0,5.0,48,0.00,,,0.01,WeatherCatV1.22B15,2013-11-20 23:26:00,
2013-11-20 17:31:00,52.6,33.5,30.00,SSE,150,3.0,6.0,48,0.00,,,0.01,WeatherCatV1.22B15,2013-11-20 23:31:00,
2013-11-20 17:36:00,52.5,32.9,30.00,SSE,161,3.0,4.0,47,0.00,,,0.01,WeatherCatV1.22B15,2013-11-20 23:36:00,
2013-11-20 17:41:00,52.4,32.2,30.01,South,171,3.0,7.0,46,0.00,,,0.01,WeatherCatV1.22B15,2013-11-20 23:41:00,
2013-11-20 17:46:00,52.5,32.9,30.01,South,169,2.0,9.0,47,0.00,,,0.01,WeatherCatV1.22B15,2013-11-20 23:46:00,
2013-11-20 17:51:00,52.6,32.4,30.01,South,175,3.0,7.0,46,0.00,,,0.01,WeatherCatV1.22B15,2013-11-20 23:51:00,
2013-11-20 17:56:00,52.8,32.0,30.01,SE,138,2.0,6.0,45,0.00,,,0.01,WeatherCatV1.22B15,2013-11-20 23:56:00,
2013-11-20 18:01:00,53.0,32.2,30.02,SSE,155,2.0,6.0,45,0.00,,,0.01,WeatherCatV1.22B15,2013-11-21 00:01:00,
2013-11-20 18:06:00,53.0,32.8,30.02,South,187,0.0,3.0,46,0.00,,,0.01,WeatherCatV1.22B15,2013-11-21 00:06:00,
2013-11-20 18:11:00,52.9,32.1,30.02,SSE,165,2.0,4.0,45,0.00,,,0.01,WeatherCatV1.22B15,2013-11-21 00:11:00,
2013-11-20 18:16:00,52.8,33.1,30.02,SSE,161,1.0,4.0,47,0.00,,,0.01,WeatherCatV1.22B15,2013-11-21 00:16:00,
2013-11-20 18:21:00,52.5,33.4,30.02,SE,143,2.0,5.0,48,0.00,,,0.01,WeatherCatV1.22B15,2013-11-21 00:21:00,
2013-11-20 18:26:00,52.4,32.8,30.01,South,180,5.0,10.0,47,0.00,,,0.01,WeatherCatV1.22B15,2013-11-21 00:26:00,
2013-11-20 18:31:00,52.4,32.8,30.01,South,189,6.0,8.0,47,0.00,,,0.01,WeatherCatV1.22B15,2013-11-21 00:31:00,
2013-11-20 18:36:00,52.6,31.9,30.00,SSE,166,4.0,11.0,45,0.00,,,0.01,WeatherCatV1.22B15,2013-11-21 00:36:00,
2013-11-20 18:41:00,53.0,31.1,30.01,SSE,154,5.0,10.0,43,0.00,,,0.01,WeatherCatV1.22B15,2013-11-21 00:41:00,
2013-11-20 18:46:00,53.5,31.6,30.01,South,186,3.0,9.0,43,0.00,,,0.01,WeatherCatV1.22B15,2013-11-21 00:46:00,
2013-11-20 18:51:00,53.8,30.7,30.01,SSE,150,4.0,12.0,41,0.00,,,0.01,WeatherCatV1.22B15,2013-11-21 00:51:00,
2013-11-20 18:56:00,54.0,30.8,30.01,South,176,7.0,12.0,41,0.00,,,0.01,WeatherCatV1.22B15,2013-11-21 00:56:00,
2013-11-20 19:01:00,54.1,30.9,30.01,South,179,7.0,7.0,41,0.00,,,0.01,WeatherCatV1.22B15,2013-11-21 01:01:00,
2013-11-20 19:06:00,54.3,31.1,30.01,SSE,155,10.0,10.0,41,0.00,,,0.01,WeatherCatV1.22B15,2013-11-21 01:06:00,
2013-11-20 19:11:00,54.4,31.2,30.01,SE,139,11.0,13.0,41,0.00,,,0.01,WeatherCatV1.22B15,2013-11-21 01:11:00,
2013-11-20 19:16:00,54.5,30.7,30.01,SE,142,5.0,11.0,40,0.00,,,0.01,WeatherCatV1.22B15,2013-11-21 01:16:00,
2013-11-20 19:21:00,54.6,30.1,30.01,ESE,111,8.0,16.0,39,0.00,,,0.01,WeatherCatV1.22B15,2013-11-21 01:21:00,
2013-11-20 19:26:00,54.6,30.1,30.01,South,188,2.0,13.0,39,0.00,,,0.01,WeatherCatV1.22B15,2013-11-21 01:26:00,
2013-11-20 19:31:00,54.7,30.2,30.02,SSE,162,4.0,11.0,39,0.00,,,0.01,WeatherCatV1.22B15,2013-11-21 01:31:00,
2013-11-20 19:36:00,54.6,30.8,30.01,SSE,153,6.0,7.0,40,0.00,,,0.01,WeatherCatV1.22B15,2013-11-21 01:36:00,
2013-11-20 19:41:00,54.6,30.8,30.01,South,175,3.0,10.0,40,0.00,,,0.01,WeatherCatV1.22B15,2013-11-21 01:41:00,
2013-11-20 19:46:00,54.6,30.8,30.01,South,182,1.0,6.0,40,0.00,,,0.01,WeatherCatV1.22B15,2013-11-21 01:46:00,
2013-11-20 19:51:00,54.5,30.7,30.01,South,169,3.0,10.0,40,0.00,,,0.01,WeatherCatV1.22B15,2013-11-21 01:51:00,
2013-11-20 19:56:00,54.5,30.7,30.02,SSE,147,5.0,14.0,40,0.00,,,0.01,WeatherCatV1.22B15,2013-11-21 01:56:00,
2013-11-20 20:01:00,54.4,31.2,30.02,SSE,163,10.0,12.0,41,0.00,,,0.01,WeatherCatV1.22B15,2013-11-21 02:01:00,
2013-11-20 20:06:00,54.4,30.6,30.02,SSW,203,7.0,10.0,40,0.00,,,0.01,WeatherCatV1.22B15,2013-11-21 02:06:00,
2013-11-20 20:12:00,54.4,31.2,30.03,SSW,207,3.0,9.0,41,0.00,,,0.01,WeatherCatV1.22B15,2013-11-21 02:12:00,
2013-11-20 20:16:00,54.3,31.1,30.03,South,173,0.0,2.0,41,0.00,,,0.01,WeatherCatV1.22B15,2013-11-21 02:16:00,
2013-11-20 20:21:00,54.3,31.1,30.04,South,188,2.0,11.0,41,0.00,,,0.01,WeatherCatV1.22B15,2013-11-21 02:21:00,
2013-11-20 20:27:00,54.2,31.6,30.03,SSW,199,3.0,7.0,42,0.00,,,0.01,WeatherCatV1.22B15,2013-11-21 02:27:00,
2013-11-20 20:32:00,54.1,31.5,30.03,SE,146,3.0,9.0,42,0.00,,,0.01,WeatherCatV1.22B15,2013-11-21 02:32:00,
2013-11-20 20:37:00,54.1,31.5,30.03,SSE,153,1.0,7.0,42,0.00,,,0.01,WeatherCatV1.22B15,2013-11-21 02:37:00,
2013-11-20 20:42:00,54.1,31.5,30.03,South,183,4.0,4.0,42,0.00,,,0.01,WeatherCatV1.22B15,2013-11-21 02:42:00,
2013-11-20 20:47:00,54.0,32.0,30.04,South,187,1.0,7.0,43,0.00,,,0.01,WeatherCatV1.22B15,2013-11-21 02:47:00,
2013-11-20 20:52:00,54.0,32.0,30.04,SSE,165,3.0,8.0,43,0.00,,,0.01,WeatherCatV1.22B15,2013-11-21 02:52:00,
2013-11-20 20:57:00,53.9,31.9,30.04,South,178,7.0,9.0,43,0.00,,,0.01,WeatherCatV1.22B15,2013-11-21 02:57:00,
2013-11-20 21:02:00,53.9,32.5,30.04,SSW,206,2.0,11.0,44,0.00,,,0.01,WeatherCatV1.22B15,2013-11-21 03:02:00,
2013-11-20 21:07:00,53.9,32.5,30.05,SSE,160,3.0,5.0,44,0.00,,,0.01,WeatherCatV1.22B15,2013-11-21 03:07:00,
2013-11-20 21:12:00,53.8,32.4,30.05,SW,216,2.0,12.0,44,0.00,,,0.01,WeatherCatV1.22B15,2013-11-21 03:12:00,
2013-11-20 21:17:00,53.8,32.4,30.04,SSW,193,3.0,8.0,44,0.00,,,0.01,WeatherCatV1.22B15,2013-11-21 03:17:00,
2013-11-20 21:22:00,53.7,32.9,30.05,SSE,166,1.0,6.0,45,0.00,,,0.01,WeatherCatV1.22B15,2013-11-21 03:22:00,
2013-11-20 21:27:00,53.7,32.9,30.05,South,175,1.0,6.0,45,0.00,,,0.01,WeatherCatV1.22B15,2013-11-21 03:27:00,
2013-11-20 21:32:00,53.6,33.3,30.05,SSE,165,3.0,6.0,46,0.00,,,0.01,WeatherCatV1.22B15,2013-11-21 03:32:00,
2013-11-20 21:37:00,53.6,32.8,30.05,South,175,2.0,7.0,45,0.00,,,0.01,WeatherCatV1.22B15,2013-11-21 03:37:00,
2013-11-20 21:42:00,53.5,32.7,30.06,SSW,197,4.0,8.0,45,0.00,,,0.01,WeatherCatV1.22B15,2013-11-21 03:42:00,
2013-11-20 21:47:00,53.5,33.2,30.06,SSE,149,6.0,12.0,46,0.00,,,0.01,WeatherCatV1.22B15,2013-11-21 03:47:00,
2013-11-20 21:52:00,53.4,33.1,30.06,SE,145,4.0,10.0,46,0.00,,,0.01,WeatherCatV1.22B15,2013-11-21 03:52:00,
2013-11-20 21:57:00,53.4,33.1,30.06,SSE,155,6.0,9.0,46,0.00,,,0.01,WeatherCatV1.22B15,2013-11-21 03:57:00,
2013-11-20 22:02:00,53.3,33.0,30.05,SSE,159,7.0,10.0,46,0.00,,,0.01,WeatherCatV1.22B15,2013-11-21 04:02:00,
2013-11-20 22:07:00,53.3,33.0,30.05,South,188,4.0,10.0,46,0.00,,,0.01,WeatherCatV1.22B15,2013-11-21 04:07:00,
2013-11-20 22:12:00,53.2,33.5,30.05,SSE,162,6.0,7.0,47,0.00,,,0.01,WeatherCatV1.22B15,2013-11-21 04:12:00,
2013-11-20 22:17:00,53.2,33.5,30.05,SSW,211,2.0,6.0,47,0.00,,,0.01,WeatherCatV1.22B15,2013-11-21 04:17:00,
2013-11-20 22:22:00,53.1,33.9,30.05,SSE,167,2.0,4.0,48,0.00,,,0.01,WeatherCatV1.22B15,2013-11-21 04:22:00,
2013-11-20 22:27:00,53.0,33.8,30.05,South,184,2.0,9.0,48,0.00,,,0.01,WeatherCatV1.22B15,2013-11-21 04:27:00,
2013-11-20 22:32:00,53.0,33.8,30.06,SSW,196,4.0,9.0,48,0.00,,,0.01,WeatherCatV1.22B15,2013-11-21 04:32:00,
2013-11-20 22:37:00,52.9,34.3,30.05,SE,142,3.0,6.0,49,0.00,,,0.01,WeatherCatV1.22B15,2013-11-21 04:37:00,
2013-11-20 22:42:00,52.8,33.7,30.06,SSW,205,4.0,10.0,48,0.00,,,0.01,WeatherCatV1.22B15,2013-11-21 04:42:00,
2013-11-20 22:47:00,52.7,34.1,30.05,South,171,2.0,6.0,49,0.00,,,0.01,WeatherCatV1.22B15,2013-11-21 04:47:00,
2013-11-20 22:52:00,52.7,34.6,30.05,SSE,157,4.0,9.0,50,0.00,,,0.01,WeatherCatV1.22B15,2013-11-21 04:52:00,
2013-11-20 22:57:00,52.6,34.5,30.04,SE,129,3.0,6.0,50,0.00,,,0.01,WeatherCatV1.22B15,2013-11-21 04:57:00,
2013-11-20 23:01:00,52.5,34.4,30.04,SE,134,6.0,8.0,50,0.00,,,0.01,WeatherCatV1.22B15,2013-11-21 05:01:00,
2013-11-20 23:06:00,52.4,34.3,30.05,South,176,2.0,6.0,50,0.00,,,0.01,WeatherCatV1.22B15,2013-11-21 05:06:00,
2013-11-20 23:11:00,52.5,34.4,30.05,SSE,159,3.0,8.0,50,0.00,,,0.01,WeatherCatV1.22B15,2013-11-21 05:11:00,
2013-11-20 23:16:00,52.5,34.9,30.05,South,170,3.0,8.0,51,0.00,,,0.01,WeatherCatV1.22B15,2013-11-21 05:16:00,
2013-11-20 23:21:00,52.5,34.9,30.05,SSE,157,4.0,8.0,51,0.00,,,0.01,WeatherCatV1.22B15,2013-11-21 05:21:00,
2013-11-20 23:26:00,52.4,34.8,30.06,South,179,1.0,8.0,51,0.00,,,0.01,WeatherCatV1.22B15,2013-11-21 05:26:00,
2013-11-20 23:31:00,52.4,34.8,30.05,South,173,1.0,7.0,51,0.00,,,0.01,WeatherCatV1.22B15,2013-11-21 05:31:00,
2013-11-20 23:36:00,52.4,35.3,30.05,SSE,158,5.0,8.0,52,0.00,,,0.01,WeatherCatV1.22B15,2013-11-21 05:36:00,
2013-11-20 23:41:00,52.4,35.3,30.05,South,183,3.0,8.0,52,0.00,,,0.01,WeatherCatV1.22B15,2013-11-21 05:41:00,
2013-11-20 23:46:00,52.4,35.3,30.06,South,190,4.0,9.0,52,0.00,,,0.01,WeatherCatV1.22B15,2013-11-21 05:46:00,
2013-11-20 23:51:00,52.4,35.8,30.05,SSE,157,4.0,7.0,53,0.00,,,0.01,WeatherCatV1.22B15,2013-11-21 05:51:00,
2013-11-20 23:56:00,52.3,35.2,30.05,South,173,4.0,8.0,52,0.00,,,0.01,WeatherCatV1.22B15,2013-11-21 05:56:00,
2013-11-20 23:57:00,52.3,35.2,30.05,SW,223,1.0,7.0,52,0.00,,,0.01,WeatherCatV1.22B15,2013-11-21 05:57:00,